Date,TemperatureHighF,TemperatureAvgF,TemperatureLowF,DewpointHighF,DewpointAvgF,DewpointLowF,HumidityHigh,HumidityAvg,HumidityLow,PressureMaxIn,PressureMinIn,WindSpeedMaxMPH,WindSpeedAvgMPH,GustSpeedMaxMPH,PrecipitationSumIn
2013-1-1,34.2,28.6,12.7,29.8,15.1,1.6,89,59,37,29.94,29.72,12,5,22,0.00
2013-1-2,28.6,15.8,3.2,11.7,5.4,-5.8,91,65,47,30.12,29.92,9,3,17,0.00
2013-1-3,24.1,12.1,1.8,17.0,-4.0,-13.0,91,52,21,30.16,29.98,7,3,14,0.00
2013-1-4,37.0,29.6,21.6,25.4,21.0,16.4,91,71,50,29.98,29.81,7,3,14,0.00
2013-1-5,41.2,30.8,16.8,28.1,20.3,13.5,91,69,36,30.26,29.85,9,3,18,0.03
2013-1-6,41.0,32.3,23.0,34.4,29.2,21.5,94,89,70,30.18,30.00,6,1,8,0.06
2013-1-7,37.5,29.7,13.5,32.3,22.5,10.5,91,78,38,30.39,29.97,7,2,12,0.01
2013-1-8,43.5,30.2,13.4,32.3,23.8,11.3,91,79,46,30.36,30.27,8,2,12,0.00
2013-1-9,44.2,33.5,18.3,39.5,28.3,16.1,91,83,47,30.40,30.00,10,2,18,0.00
2013-1-10,45.3,38.7,27.5,30.3,23.4,19.6,91,56,36,30.54,30.05,12,5,20,0.00
2013-1-11,40.6,31.0,21.9,33.6,27.1,19.7,98,86,56,30.54,30.23,2,0,5,0.10
2013-1-12,43.5,36.5,32.7,43.0,36.0,32.2,98,98,98,30.23,30.13,2,0,4,0.02
2013-1-13,47.7,41.3,35.4,47.2,40.8,34.9,98,98,98,30.15,29.99,7,1,7,0.01
2013-1-14,58.4,46.4,37.8,56.6,43.6,32.5,98,90,67,30.27,29.98,8,3,18,0.00
2013-1-15,41.0,34.7,26.8,33.3,30.1,26.3,98,84,64,30.33,30.24,7,2,10,0.00
2013-1-16,32.7,30.8,27.7,32.2,30.3,27.2,98,98,98,30.25,29.53,2,0,5,0.00
2013-1-17,41.7,33.0,27.1,37.8,29.1,16.2,98,86,63,30.10,29.83,7,2,23,0.36
2013-1-18,26.2,18.8,11.3,14.2,5.8,0.2,88,58,39,30.43,30.08,10,3,18,0.00
2013-1-19,40.5,32.8,18.0,31.3,24.2,10.6,82,70,67,30.36,29.94,8,4,14,0.00
2013-1-20,50.6,38.3,25.2,37.2,27.1,13.4,79,64,46,29.93,29.54,12,7,24,0.00
2013-1-21,26.6,21.9,16.5,22.5,13.4,7.2,98,72,53,30.08,29.80,8,2,21,0.00
2013-1-22,23.0,16.6,7.9,19.8,9.0,-1.0,98,74,45,30.08,29.76,10,4,21,0.00
2013-1-23,14.4,7.4,2.1,4.3,-5.9,-8.8,93,55,39,30.14,30.06,9,4,17,0.00
2013-1-24,18.3,7.8,-1.1,-3.8,-7.6,-11.3,65,50,35,30.23,30.08,12,6,18,0.00
2013-1-25,21.6,13.3,5.0,15.3,-3.5,-8.6,98,48,32,30.31,30.07,9,4,15,0.00
2013-1-26,23.0,14.5,7.3,14.8,5.0,-3.4,98,69,41,30.25,30.01,10,4,17,0.00
2013-1-27,29.6,17.2,8.1,6.9,5.0,2.4,87,61,34,30.48,30.25,8,4,17,0.00
2013-1-28,29.8,23.2,15.6,26.6,16.0,5.9,98,76,50,30.46,30.03,3,1,8,0.00
2013-1-29,37.2,29.4,22.5,36.7,28.9,22.0,98,98,98,30.19,30.03,3,1,5,0.03
2013-1-30,57.6,43.5,31.6,57.0,42.9,31.1,98,98,98,30.15,29.43,6,2,13,0.48
2013-1-31,59.0,44.3,27.1,58.5,39.5,20.6,98,84,53,29.59,28.96,13,7,23,0.83
2013-2-1,30.9,25.7,18.5,19.1,12.6,7.1,71,58,46,30.08,29.59,10,5,23,0.01
2013-2-2,23.5,17.4,12.9,11.3,7.6,5.2,74,65,52,30.24,30.08,6,3,13,0.00
2013-2-4,24.0,22.9,15.8,10.4,9.7,9.2,79,57,54,30.22,29.91,6,3,13,0.00
2013-2-5,29.8,23.3,15.4,24.1,16.6,10.6,98,76,56,30.02,29.93,7,2,12,0.00
2013-2-6,35.7,27.6,19.4,31.2,21.1,7.7,98,79,51,30.29,29.92,10,3,16,0.00
2013-2-7,30.3,22.1,10.2,11.9,8.0,4.9,98,58,37,30.53,30.31,7,2,12,0.00
2013-2-8,23.7,21.2,18.0,23.2,17.7,5.6,98,88,47,30.49,29.80,12,4,15,0.10
2013-2-9,24.0,18.7,12.9,23.5,18.1,11.5,98,98,94,30.17,29.47,10,1,14,0.00
2013-2-10,40.4,20.9,10.8,19.8,12.3,7.4,98,76,30,30.39,30.17,7,1,12,0.02
2013-2-11,39.6,26.9,11.8,39.1,26.4,10.4,98,98,98,30.34,29.62,8,1,19,0.00
2013-2-12,45.0,37.5,33.1,38.6,35.0,32.6,98,92,68,29.89,29.63,10,5,22,0.05
2013-2-13,42.6,35.5,27.9,33.7,30.2,27.4,98,83,62,29.87,29.75,6,2,14,0.00
2013-2-14,45.0,34.9,23.0,31.5,27.5,22.5,98,78,51,29.98,29.74,5,2,7,0.00
2013-2-15,52.2,35.1,20.3,41.2,31.3,19.8,98,88,57,29.99,29.89,8,2,15,0.00
2013-2-16,40.8,33.0,27.1,39.6,31.1,21.7,98,93,70,29.97,29.76,7,2,14,0.00
2013-2-17,26.4,20.2,14.7,25.9,11.2,2.5,98,70,52,29.75,29.44,17,9,31,0.01
2013-2-18,32.2,20.2,11.1,5.8,3.5,0.2,68,50,27,30.15,29.71,12,7,26,0.00
2013-2-19,46.3,33.5,18.1,44.2,26.1,5.2,98,76,48,30.17,29.60,5,1,12,0.01
2013-2-20,36.8,29.8,23.9,36.3,24.2,15.2,98,81,54,29.78,29.56,14,7,21,0.00
2013-2-21,32.9,26.1,21.4,24.7,19.4,14.2,98,78,51,30.19,29.77,12,6,22,0.00
2013-2-22,41.7,30.7,17.2,31.6,25.2,16.7,98,82,54,30.39,30.22,7,2,15,0.00
2013-2-23,37.6,32.4,26.1,37.1,31.9,25.6,98,98,98,30.33,29.94,5,1,7,0.00
2013-2-24,35.8,32.9,31.3,35.3,32.4,30.8,98,98,98,29.93,29.74,3,2,10,0.00
2013-2-25,42.2,33.3,23.7,41.6,32.8,23.2,98,98,98,30.27,29.91,5,0,9,0.00
2013-2-26,45.8,37.4,31.0,45.2,36.9,30.5,98,98,98,30.33,30.17,5,2,8,0.00
2013-2-27,40.3,35.1,32.4,39.7,34.6,31.9,98,98,98,30.17,29.64,9,4,15,0.00
2013-2-28,44.6,37.2,31.1,44.1,36.6,30.6,98,98,98,29.65,29.55,5,2,7,0.00
2013-3-1,42.1,36.5,30.7,40.2,35.1,30.2,98,95,74,29.70,29.55,7,3,15,0.00
2013-3-2,40.8,36.7,33.8,40.3,36.2,33.3,98,98,96,29.91,29.64,8,3,12,0.00
2013-3-3,33.8,31.0,29.7,33.3,30.5,29.2,98,98,98,29.66,29.63,6,3,9,0.00
2013-3-5,34.5,33.8,33.1,34.0,33.2,32.6,98,98,98,30.36,30.05,3,0,5,0.00
2013-3-6,38.8,33.9,30.6,38.3,33.4,30.1,98,98,98,30.12,30.06,8,5,22,0.00
2013-3-7,34.2,31.7,28.9,33.7,31.2,28.4,98,98,98,30.11,30.03,9,6,14,0.00
2013-3-8,40.6,34.1,28.9,40.1,32.6,28.4,98,94,73,30.17,29.98,9,5,13,0.00
2013-3-9,56.1,39.5,23.4,38.6,28.2,22.9,98,69,30,30.37,30.18,8,3,9,0.00
2013-3-10,41.0,23.2,17.4,40.5,22.7,16.9,98,98,98,30.42,30.37,2,0,5,0.00
2013-3-11,50.0,39.8,29.0,44.4,31.5,25.1,98,76,44,29.71,29.62,8,5,11,0.00
2013-3-14,34.8,28.6,20.0,27.1,17.4,9.6,98,64,53,29.85,29.71,12,7,19,0.00
2013-3-15,40.2,31.0,16.7,36.2,20.7,9.9,98,70,32,29.88,29.64,8,4,14,0.00
2013-4-4,36.0,35.3,27.5,29.9,22.4,21.8,98,60,56,30.31,30.28,6,6,12,0.00
2013-7-15,85.0,80.3,77.4,84.4,74.2,67.3,98,82,71,30.14,29.91,0,0,0,0.00
2013-7-16,95.9,84.0,72.3,70.3,65.6,61.9,81,56,36,30.17,30.11,8,2,12,0.00
2013-7-17,94.8,82.5,68.4,73.0,66.4,64.0,90,61,38,30.18,30.01,5,1,9,0.00
2013-7-18,98.2,84.8,75.6,77.6,69.3,64.5,81,62,37,30.01,29.93,6,1,10,0.00
2013-7-19,97.2,87.6,72.0,79.4,70.8,66.4,98,60,40,29.89,29.71,8,3,15,0.00
2013-7-20,91.1,82.2,70.5,76.9,65.7,54.5,73,58,45,29.81,29.68,7,2,12,0.00
2013-7-21,87.0,75.5,65.3,68.3,61.2,55.7,84,62,45,29.99,29.84,5,1,10,0.00
2013-7-22,83.8,72.0,63.5,69.3,63.9,60.6,93,77,56,30.04,29.90,3,0,8,0.00
2013-7-23,81.7,71.4,67.5,74.1,67.6,63.2,96,88,74,29.89,29.54,5,0,8,1.93
2013-7-24,83.6,75.3,64.4,69.3,63.3,51.5,93,68,47,29.97,29.59,8,2,14,0.00
2013-7-25,65.3,61.0,57.6,57.1,51.4,44.7,89,71,62,30.12,29.99,6,1,10,0.03
2013-7-26,75.4,65.8,60.6,64.2,59.0,55.4,93,79,61,30.08,29.97,7,2,13,0.48
2013-7-27,85.1,71.4,56.8,64.4,58.1,52.9,89,66,41,30.07,29.99,6,0,9,0.00
2013-7-28,84.5,71.6,61.3,67.8,63.0,57.6,93,76,49,30.02,29.96,3,0,6,0.00
2013-7-29,87.8,75.2,66.9,71.0,64.3,53.3,96,71,42,30.05,29.95,5,1,9,0.00
2013-7-30,84.0,72.2,60.6,60.2,54.1,47.3,75,55,34,30.12,30.04,7,2,12,0.00
2013-7-31,83.6,71.7,60.1,59.9,55.9,51.6,87,60,38,30.16,30.04,5,1,9,0.00
2013-8-1,82.0,68.0,57.9,66.8,59.6,54.7,98,76,52,30.06,29.85,5,1,12,0.04
2013-8-2,83.6,72.1,63.5,66.9,60.2,51.5,93,70,36,29.89,29.81,8,2,16,0.65
2013-8-3,82.3,68.7,61.3,76.4,58.4,53.5,98,72,48,29.87,29.77,7,1,13,0.01
2013-8-4,80.8,67.7,56.1,59.0,52.6,43.5,86,61,36,29.92,29.79,7,2,13,0.00
2013-8-5,78.4,64.3,53.6,51.9,44.3,35.0,86,54,24,30.07,29.91,10,3,18,0.00
2013-8-6,85.6,65.2,48.2,57.9,48.6,43.4,89,59,35,30.15,30.08,5,0,7,0.00
2013-8-7,82.9,68.2,53.6,62.2,53.5,49.0,93,64,33,30.19,30.11,5,1,9,0.00
2013-8-8,83.6,73.2,65.8,70.7,64.2,55.3,87,74,62,30.12,30.00,6,1,10,0.00
2013-8-9,77.7,72.7,70.2,74.6,68.7,64.6,94,87,78,30.02,29.75,3,0,7,1.30
2013-8-10,83.1,72.9,64.6,66.7,57.8,44.3,90,62,38,30.03,29.80,9,3,17,0.00
2013-8-11,82.8,67.7,52.3,57.1,52.1,47.7,86,61,37,30.10,30.01,7,2,9,0.00
2013-8-12,83.4,69.8,57.0,59.9,55.0,50.3,86,63,36,30.04,29.93,7,1,9,0.00
2013-8-13,76.2,68.6,63.5,68.3,62.7,58.7,93,82,68,29.93,29.69,3,0,6,0.06
2013-8-14,74.5,65.2,57.6,63.4,51.5,45.1,93,63,43,29.98,29.68,10,4,17,0.00
2013-8-15,77.0,64.2,55.2,54.5,47.8,40.6,83,58,34,30.12,29.99,7,2,13,0.00
2013-8-16,81.4,65.5,51.4,58.6,46.9,36.2,83,53,35,30.21,30.12,6,1,10,0.00
2013-8-17,82.7,70.7,54.0,76.8,60.2,50.3,98,74,39,30.28,30.21,3,0,6,0.00
2013-8-18,78.5,68.1,57.0,63.3,57.7,52.1,90,71,48,30.28,30.09,3,0,7,0.00
2013-8-19,81.4,71.5,62.4,63.6,57.2,52.1,86,63,39,30.09,29.97,6,2,14,0.00
2013-8-20,86.8,74.8,61.3,64.6,59.0,54.5,83,61,35,30.10,29.99,7,2,9,0.00
2013-8-21,88.6,75.4,62.4,68.1,60.0,54.3,80,61,40,30.16,30.04,5,2,10,0.00
2013-8-22,87.5,75.4,62.2,68.5,62.8,57.1,87,67,46,30.05,29.83,7,2,13,0.00
2013-8-23,82.0,71.9,62.6,66.5,56.9,43.8,84,61,33,30.15,29.83,7,3,12,0.00
2013-8-24,79.7,65.3,51.8,52.6,46.4,33.4,83,55,26,30.35,30.15,5,1,9,0.00
2013-8-25,83.2,67.9,51.8,59.8,49.0,42.2,83,55,26,30.39,30.19,6,1,10,0.00
2013-8-26,81.3,72.0,63.5,64.6,58.9,49.4,81,64,51,30.19,29.88,8,2,13,0.00
2013-8-27,86.4,75.1,67.6,69.6,64.1,57.0,90,71,44,29.91,29.83,5,1,10,0.08
2013-8-28,88.0,73.7,63.1,70.5,62.2,55.6,93,70,43,29.98,29.85,3,0,7,0.00
2013-8-29,68.7,65.0,60.8,64.6,60.4,54.6,93,85,78,30.08,29.95,6,1,9,0.00
2013-8-30,85.1,71.3,57.9,64.6,60.4,53.9,93,70,47,30.04,29.83,7,2,10,0.00
2013-8-31,82.8,74.9,69.4,71.8,67.9,62.3,94,79,67,29.83,29.78,5,1,9,0.03
2013-9-1,74.1,73.9,72.1,70.3,67.4,63.3,88,80,69,29.87,29.81,0,0,0,0.12
2013-9-2,80.8,74.3,71.2,74.0,69.9,64.5,94,87,71,29.87,29.71,2,0,7,0.30
2013-9-3,81.5,71.8,63.9,68.2,62.1,52.1,96,73,58,29.82,29.70,8,2,15,0.00
2013-9-4,81.4,68.2,58.5,58.2,52.0,43.5,83,60,32,29.93,29.81,7,3,15,0.00
2013-9-5,72.3,62.6,50.5,61.5,48.4,34.1,88,63,30,30.16,29.87,8,2,12,0.00
2013-9-6,70.8,56.8,42.8,45.0,37.8,31.2,82,54,26,30.26,30.11,6,1,10,0.00
2013-9-7,80.2,63.4,47.1,53.6,46.0,39.2,86,57,31,30.10,29.86,5,1,9,0.00
2013-9-8,73.6,64.0,50.4,59.6,48.2,34.1,93,60,30,30.10,29.77,9,3,15,0.01
2013-9-9,72.6,57.5,40.1,44.6,39.3,34.7,85,55,29,30.25,30.14,6,1,12,0.01
2013-9-10,78.4,66.9,53.4,70.0,59.7,43.9,90,78,66,30.15,30.03,5,1,12,0.07
2013-9-11,95.0,80.2,66.4,78.8,67.8,59.1,94,70,41,30.07,29.94,10,2,19,0.00
2013-9-12,88.7,76.1,66.9,75.4,67.1,61.1,93,75,51,29.96,29.67,7,2,16,0.56
2013-9-13,78.1,67.9,58.6,66.6,60.0,51.4,93,77,54,29.78,29.58,10,2,13,0.05
2013-9-14,66.7,58.1,52.0,54.4,49.4,46.6,98,74,52,30.00,29.78,7,3,13,0.00
2013-9-15,73.0,58.2,44.8,52.9,45.1,38.4,92,66,32,30.18,30.06,6,1,9,0.00
2013-9-16,67.8,58.3,45.7,53.3,46.4,33.4,80,65,46,30.27,30.01,8,3,13,0.00
2013-9-17,64.9,50.0,37.0,40.7,35.4,28.6,96,61,35,30.46,30.27,7,2,13,0.00
2013-9-18,74.8,56.4,39.9,50.5,39.7,34.2,86,60,24,30.35,30.15,6,1,9,0.00
2013-9-19,81.6,63.6,47.5,52.5,45.7,39.3,83,56,29,30.14,30.04,6,1,9,0.00
2013-9-20,81.8,63.9,48.4,68.4,49.7,44.2,98,65,31,30.10,29.91,3,0,6,0.00
2013-9-21,76.1,63.4,49.6,62.3,54.6,46.5,93,75,52,30.03,29.72,6,1,14,0.00
2013-9-22,70.3,62.5,51.1,64.1,51.3,38.9,89,69,43,29.86,29.60,9,3,14,0.85
2013-9-23,63.9,52.3,42.6,41.9,37.8,33.3,85,60,39,30.03,29.86,9,3,14,0.00
2013-9-24,68.3,53.0,39.7,45.2,37.1,32.0,83,58,30,30.02,29.84,9,3,15,0.00
2013-9-25,71.2,59.4,46.2,56.9,46.0,40.9,86,63,42,30.00,29.89,6,3,10,0.00
2013-9-26,67.6,61.0,53.2,60.7,47.9,40.4,80,64,41,30.07,30.00,6,2,7,0.00
2013-9-27,66.4,61.5,55.6,62.5,51.4,46.9,89,70,54,30.24,30.14,6,2,10,0.00
2013-9-28,75.6,64.4,47.3,63.4,53.8,43.0,92,72,44,30.34,30.21,5,1,9,0.00
2013-9-29,70.5,54.4,41.5,53.4,42.6,27.4,92,69,33,30.27,30.11,3,0,7,0.00
2013-9-30,72.1,53.0,37.2,52.4,42.6,34.0,92,72,36,30.13,29.97,5,0,8,0.00
2013-10-1,79.3,61.5,43.5,59.8,47.9,40.4,92,66,32,29.97,29.85,7,2,14,0.00
2013-10-2,81.1,67.4,52.5,58.4,53.6,47.0,89,63,42,29.90,29.85,14,3,14,0.00
2013-10-3,78.1,65.5,50.0,67.1,46.7,38.0,98,58,27,30.09,29.85,6,1,8,0.00
2013-10-4,56.0,52.8,52.0,55.4,52.3,51.5,98,98,98,30.09,30.03,3,0,5,0.36
2013-10-6,54.1,53.8,52.9,52.7,52.1,51.8,98,94,93,30.18,30.03,0,0,0,0.39
2013-10-7,77.1,61.7,54.1,67.0,57.3,51.5,96,86,64,30.14,29.78,13,2,19,0.49
2013-10-8,65.9,55.7,43.7,50.1,41.0,30.2,85,61,33,30.36,29.90,7,3,13,0.00
2013-10-9,63.8,52.4,37.0,59.4,42.6,36.0,98,73,43,30.47,30.27,5,1,10,0.00
2013-10-10,61.0,51.5,39.0,60.4,48.2,38.5,98,90,59,30.24,30.06,3,0,4,0.00
2013-10-11,72.3,55.4,43.1,51.4,40.8,21.7,92,65,16,30.19,30.10,6,1,9,0.00
2013-10-12,56.5,51.4,44.2,52.4,48.1,40.9,93,89,81,30.41,30.16,6,1,9,0.00
2013-10-13,59.0,50.4,39.9,49.5,44.8,37.8,96,82,63,30.46,30.39,3,0,7,0.00
2013-10-14,68.0,49.0,33.3,47.5,38.3,30.1,96,71,35,30.41,30.24,3,0,6,0.00
2013-10-15,65.8,54.8,49.1,53.3,47.4,41.3,89,76,60,30.27,30.23,3,0,7,0.00
2013-10-18,65.9,59.3,47.5,58.3,43.8,33.7,88,58,42,29.87,29.61,10,4,17,0.00
2013-10-20,61.0,57.5,48.6,38.2,29.8,24.1,52,35,30,29.94,29.84,12,5,17,0.00
2013-10-21,67.2,53.1,35.0,43.2,35.4,27.3,98,56,30,30.12,29.88,6,2,13,0.00
2013-10-22,66.3,50.4,37.0,50.9,40.8,35.2,98,72,48,29.99,29.62,6,2,12,0.00
2013-10-23,52.5,44.4,32.0,36.8,30.3,25.5,92,61,39,29.80,29.60,6,1,9,0.00
2013-10-24,52.5,44.4,36.0,33.3,25.4,16.1,78,50,28,29.89,29.66,10,3,17,0.00
2013-10-25,48.9,39.7,27.7,33.1,25.8,18.8,85,60,34,30.16,29.89,8,2,16,0.00
2013-10-26,45.9,28.8,25.3,37.7,24.0,20.7,88,82,62,30.16,30.09,5,0,10,0.00